Location: Unspecified
(0.0000°N, 0.0000°E)
Time: 17:20:49
(UTC+02:00)

IUS-9 SRM-1 - Visible Passes

Search period start: 28 September 2016 00:00
Search period end: 08 October 2016 00:00
Orbit: 239 x 19972 km, 26.4° (Epoch: 27 September)

Date Brightness Start Highest point End Pass type
(mag) Time Alt. Az. Time Alt. Az. Time Alt. Az.
28 Sep 7.7 01:58:09 10° WNW 05:59:57 59° SW 06:22:10 10° SE visible
28 Sep 7.5 18:34:52 10° WNW 18:47:28 43° N 21:28:21 18° ENE visible
29 Sep 8.0 01:10:26 10° WNW 05:16:00 68° SW 05:44:24 10° SE visible
29 Sep 7.0 17:56:52 10° WNW 18:06:21 42° N 20:34:40 10° ENE visible
30 Sep 8.1 00:25:29 10° WNW 04:29:00 76° SW 05:06:13 10° SE visible
30 Sep 6.5 17:18:53 10° WNW 17:26:06 43° N 18:19:29 10° ENE visible
30 Sep 8.2 23:42:17 10° WNW 03:37:37 84° SW 04:27:34 10° SE visible
01 Oct 8.4 23:00:16 10° WNW 02:46:44 86° E 03:48:23 10° ESE visible
02 Oct 8.5 22:19:03 10° NW 02:10:52 74° E 03:08:31 10° ESE visible
03 Oct 8.6 21:38:24 10° NW 01:34:41 62° E 02:27:48 10° ESE visible
04 Oct 6.8 08:00:26 10° WSW 08:31:43 20° SW 08:39:45 10° SSE visible
04 Oct 8.7 20:58:08 10° NW 00:58:11 50° E 01:45:55 10° ESE visible
05 Oct 7.1 06:49:07 14° W 07:50:52 28° SW 08:01:52 10° SSE visible
05 Oct 8.5 20:18:10 10° NW 21:06:33 49° NNE 01:02:24 10° ESE visible
06 Oct 7.4 03:41:40 10° WNW 07:09:11 35° SW 07:23:34 10° SSE visible
06 Oct 8.3 19:38:22 10° NW 20:07:05 45° NNE 00:16:22 10° ESE visible
07 Oct 7.6 02:35:15 10° WNW 06:26:20 44° SW 06:44:53 10° SE visible
07 Oct 8.1 18:58:42 10° WNW 19:18:22 41° NNE 23:25:58 10° E visible
